Time,TemperatureF,DewpointF,PressureIn,WindDirection,WindDirectionDegrees,WindSpeedMPH,WindSpeedGustMPH,Humidity,HourlyPrecipIn,Conditions,Clouds,dailyrainin,SoftwareType,DateUTC
2013-04-11 00:13:00,37.0,28.0,29.78,WSW,242,13.0,-999.0,71,-99.99,,,0.00,weatherlink.com 1.10,2013-04-11 05:13:00,
2013-04-11 00:28:00,37.3,29.0,29.77,West,259,14.0,-999.0,71,-99.99,,,0.00,weatherlink.com 1.10,2013-04-11 05:28:00,
2013-04-11 00:43:00,37.2,29.0,29.77,West,271,22.0,-999.0,71,-99.99,,,0.00,weatherlink.com 1.10,2013-04-11 05:43:00,
2013-04-11 00:58:00,37.0,28.0,29.77,WSW,258,25.0,-999.0,71,-99.99,,,0.00,weatherlink.com 1.10,2013-04-11 05:58:00,
2013-04-11 01:13:00,37.1,28.0,29.78,WSW,255,11.0,-999.0,71,-99.99,,,0.00,weatherlink.com 1.10,2013-04-11 06:13:00,
2013-04-11 01:28:00,37.0,28.0,29.78,West,261,7.0,-999.0,71,-99.99,,,0.00,weatherlink.com 1.10,2013-04-11 06:28:00,
2013-04-11 01:43:00,37.0,28.0,29.78,WSW,243,12.0,-999.0,71,-99.99,,,0.00,weatherlink.com 1.10,2013-04-11 06:43:00,
2013-04-11 01:58:00,37.0,28.0,29.80,SW,234,5.0,-999.0,71,-99.99,,,0.00,weatherlink.com 1.10,2013-04-11 06:58:00,
2013-04-11 02:13:00,37.0,28.0,29.80,WSW,257,0.0,-999.0,71,-99.99,,,0.00,weatherlink.com 1.10,2013-04-11 07:13:00,
2013-04-11 02:28:00,36.8,28.0,29.79,West,269,7.0,-999.0,71,-99.99,,,0.00,weatherlink.com 1.10,2013-04-11 07:28:00,
2013-04-11 02:43:00,36.5,28.0,29.79,WNW,283,7.0,-999.0,71,-99.99,,,0.00,weatherlink.com 1.10,2013-04-11 07:43:00,
2013-04-11 02:58:00,36.1,28.0,29.77,WNW,302,14.0,-999.0,71,-99.99,,,0.00,weatherlink.com 1.10,2013-04-11 07:58:00,
2013-04-11 03:13:00,35.9,27.0,29.76,WSW,247,10.0,-999.0,71,-99.99,,,0.00,weatherlink.com 1.10,2013-04-11 08:13:00,
2013-04-11 03:28:00,35.5,27.0,29.76,WNW,291,15.0,-999.0,72,-99.99,,,0.00,weatherlink.com 1.10,2013-04-11 08:28:00,
2013-04-11 03:43:00,35.3,27.0,29.74,WNW,284,21.0,-999.0,72,-99.99,,,0.00,weatherlink.com 1.10,2013-04-11 08:43:00,
2013-04-11 03:58:00,35.0,27.0,29.72,WSW,252,13.0,-999.0,72,-99.99,,,0.00,weatherlink.com 1.10,2013-04-11 08:58:00,
2013-04-11 04:13:00,34.9,27.0,29.72,West,261,18.0,-999.0,72,-99.99,,,0.00,weatherlink.com 1.10,2013-04-11 09:13:00,
2013-04-11 04:28:00,34.6,26.0,29.75,West,271,21.0,-999.0,72,-99.99,,,0.00,weatherlink.com 1.10,2013-04-11 09:28:00,
2013-04-11 04:43:00,34.5,26.0,29.77,West,273,0.0,-999.0,72,-99.99,,,0.00,weatherlink.com 1.10,2013-04-11 09:43:00,
2013-04-11 04:58:00,34.4,26.0,29.82,West,275,4.0,-999.0,72,-99.99,,,0.00,weatherlink.com 1.10,2013-04-11 09:58:00,
2013-04-11 05:13:00,34.1,26.0,29.78,West,266,17.0,-999.0,72,-99.99,,,0.00,weatherlink.com 1.10,2013-04-11 10:13:00,
2013-04-11 05:28:00,33.7,26.0,29.79,NW,315,0.0,-999.0,72,-99.99,,,0.00,weatherlink.com 1.10,2013-04-11 10:28:00,
2013-04-11 05:43:00,33.2,25.0,29.78,West,278,9.0,-999.0,72,-99.99,,,0.00,weatherlink.com 1.10,2013-04-11 10:43:00,
2013-04-11 05:58:00,33.2,25.0,29.80,West,266,0.0,-999.0,72,-99.99,,,0.00,weatherlink.com 1.10,2013-04-11 10:58:00,
2013-04-11 06:13:00,33.0,25.0,29.79,WSW,242,0.0,-999.0,72,-99.99,,,0.00,weatherlink.com 1.10,2013-04-11 11:13:00,
2013-04-11 06:28:00,32.6,24.0,29.77,WNW,284,0.0,-999.0,72,-99.99,,,0.00,weatherlink.com 1.10,2013-04-11 11:28:00,
2013-04-11 06:43:00,32.3,24.0,29.78,West,270,0.0,-999.0,72,-99.99,,,0.00,weatherlink.com 1.10,2013-04-11 11:43:00,
2013-04-11 06:58:00,32.4,25.0,29.79,WSW,251,7.0,-999.0,73,-99.99,,,0.00,weatherlink.com 1.10,2013-04-11 11:58:00,
2013-04-11 07:13:00,32.3,25.0,29.79,West,273,11.0,-999.0,73,-99.99,,,0.00,weatherlink.com 1.10,2013-04-11 12:13:00,
2013-04-11 07:28:00,32.1,24.0,29.77,West,260,2.0,-999.0,73,-99.99,,,0.00,weatherlink.com 1.10,2013-04-11 12:28:00,
2013-04-11 07:43:00,32.1,24.0,29.79,WSW,237,6.0,-999.0,73,-99.99,,,0.00,weatherlink.com 1.10,2013-04-11 12:43:00,
2013-04-11 07:58:00,32.0,24.0,29.80,NW,309,2.0,-999.0,73,-99.99,,,0.00,weatherlink.com 1.10,2013-04-11 12:58:00,
2013-04-11 08:13:00,31.8,24.0,29.82,West,278,1.0,-999.0,73,-99.99,,,0.00,weatherlink.com 1.10,2013-04-11 13:13:00,
2013-04-11 08:28:00,31.9,24.0,29.81,WNW,302,1.0,-999.0,73,-99.99,,,0.00,weatherlink.com 1.10,2013-04-11 13:28:00,
2013-04-11 08:43:00,32.0,24.0,29.82,West,281,5.0,-999.0,73,-99.99,,,0.00,weatherlink.com 1.10,2013-04-11 13:43:00,
2013-04-11 08:58:00,32.0,24.0,29.78,WSW,246,2.0,-999.0,73,-99.99,,,0.00,weatherlink.com 1.10,2013-04-11 13:58:00,
2013-04-11 09:13:00,32.0,24.0,29.77,West,269,7.0,-999.0,73,-99.99,,,0.00,weatherlink.com 1.10,2013-04-11 14:13:00,
2013-04-11 09:28:00,32.3,25.0,29.80,WNW,288,0.0,-999.0,73,-99.99,,,0.00,weatherlink.com 1.10,2013-04-11 14:28:00,
2013-04-11 09:43:00,32.6,25.0,29.79,West,262,5.0,-999.0,73,-99.99,,,0.00,weatherlink.com 1.10,2013-04-11 14:43:00,
2013-04-11 09:58:00,32.6,25.0,29.79,WNW,286,2.0,-999.0,73,-99.99,,,0.00,weatherlink.com 1.10,2013-04-11 14:58:00,
2013-04-11 10:13:00,32.9,25.0,29.80,WNW,283,0.0,-999.0,73,-99.99,,,0.00,weatherlink.com 1.10,2013-04-11 15:13:00,
2013-04-11 10:28:00,33.5,26.0,29.82,WNW,285,8.0,-999.0,73,-99.99,,,0.00,weatherlink.com 1.10,2013-04-11 15:28:00,
2013-04-11 10:43:00,33.8,26.0,29.83,West,279,6.0,-999.0,73,-99.99,,,0.00,weatherlink.com 1.10,2013-04-11 15:43:00,
2013-04-11 10:58:00,33.8,26.0,29.84,West,263,5.0,-999.0,72,-99.99,,,0.00,weatherlink.com 1.10,2013-04-11 15:58:00,
2013-04-11 11:13:00,34.0,26.0,29.83,WNW,290,7.0,-999.0,72,-99.99,,,0.00,weatherlink.com 1.10,2013-04-11 16:13:00,
2013-04-11 11:28:00,34.6,26.0,29.82,WNW,282,4.0,-999.0,71,-99.99,,,0.00,weatherlink.com 1.10,2013-04-11 16:28:00,
2013-04-11 11:43:00,35.3,26.0,29.83,West,277,0.0,-999.0,70,-99.99,,,0.00,weatherlink.com 1.10,2013-04-11 16:43:00,
2013-04-11 11:58:00,36.0,27.0,29.84,WNW,287,0.0,-999.0,70,-99.99,,,0.00,weatherlink.com 1.10,2013-04-11 16:58:00,
2013-04-11 12:13:00,37.5,30.0,29.82,West,274,7.0,-999.0,73,-99.99,,,0.00,weatherlink.com 1.10,2013-04-11 17:13:00,
2013-04-11 12:28:00,38.0,32.0,29.82,WNW,286,0.0,-999.0,79,-99.99,,,0.00,weatherlink.com 1.10,2013-04-11 17:28:00,
2013-04-11 12:43:00,38.9,33.0,29.82,WNW,289,2.0,-999.0,80,-99.99,,,0.00,weatherlink.com 1.10,2013-04-11 17:43:00,
2013-04-11 12:58:00,40.3,35.0,29.81,West,277,6.0,-999.0,80,-99.99,,,0.00,weatherlink.com 1.10,2013-04-11 17:58:00,
2013-04-11 13:13:00,41.0,35.0,29.80,WNW,289,2.0,-999.0,79,-99.99,,,0.00,weatherlink.com 1.10,2013-04-11 18:13:00,
2013-04-11 13:28:00,41.9,36.0,29.82,NW,304,20.0,-999.0,78,-99.99,,,0.00,weatherlink.com 1.10,2013-04-11 18:28:00,
2013-04-11 13:43:00,42.2,36.0,29.80,West,279,11.0,-999.0,78,-99.99,,,0.00,weatherlink.com 1.10,2013-04-11 18:43:00,
2013-04-11 13:58:00,43.7,36.0,29.82,SW,232,1.0,-999.0,75,-99.99,,,0.00,weatherlink.com 1.10,2013-04-11 18:58:00,
2013-04-11 14:13:00,45.3,37.0,29.82,West,274,0.0,-999.0,73,-99.99,,,0.00,weatherlink.com 1.10,2013-04-11 19:13:00,
2013-04-11 14:28:00,46.6,36.0,29.81,WSW,242,0.0,-999.0,68,-99.99,,,0.00,weatherlink.com 1.10,2013-04-11 19:28:00,
2013-04-11 14:43:00,47.6,37.0,29.82,WSW,246,0.0,-999.0,66,-99.99,,,0.00,weatherlink.com 1.10,2013-04-11 19:43:00,
2013-04-11 14:58:00,48.5,37.0,29.81,WNW,294,7.0,-999.0,64,-99.99,,,0.00,weatherlink.com 1.10,2013-04-11 19:58:00,
2013-04-11 15:13:00,49.0,36.0,29.80,WNW,291,1.0,-999.0,62,-99.99,,,0.00,weatherlink.com 1.10,2013-04-11 20:13:00,
2013-04-11 15:28:00,49.7,36.0,29.80,WNW,288,0.0,-999.0,60,-99.99,,,0.00,weatherlink.com 1.10,2013-04-11 20:28:00,
2013-04-11 15:43:00,50.3,37.0,29.79,West,266,0.0,-999.0,61,-99.99,,,0.00,weatherlink.com 1.10,2013-04-11 20:43:00,
2013-04-11 15:58:00,50.6,37.0,29.78,West,275,6.0,-999.0,59,-99.99,,,0.00,weatherlink.com 1.10,2013-04-11 20:58:00,
2013-04-11 16:13:00,50.3,35.0,29.78,WNW,284,8.0,-999.0,57,-99.99,,,0.00,weatherlink.com 1.10,2013-04-11 21:13:00,
2013-04-11 16:28:00,50.5,36.0,29.77,West,279,1.0,-999.0,58,-99.99,,,0.00,weatherlink.com 1.10,2013-04-11 21:28:00,
2013-04-11 16:43:00,51.0,36.0,29.77,West,275,0.0,-999.0,57,-99.99,,,0.00,weatherlink.com 1.10,2013-04-11 21:43:00,
2013-04-11 16:58:00,51.0,36.0,29.76,West,275,0.0,-999.0,58,-99.99,,,0.00,weatherlink.com 1.10,2013-04-11 21:58:00,
2013-04-11 17:13:00,51.3,36.0,29.76,West,260,7.0,-999.0,57,-99.99,,,0.00,weatherlink.com 1.10,2013-04-11 22:13:00,
2013-04-11 17:28:00,50.6,35.0,29.76,West,271,0.0,-999.0,56,-99.99,,,0.00,weatherlink.com 1.10,2013-04-11 22:28:00,
2013-04-11 17:43:00,50.5,35.0,29.76,WSW,253,0.0,-999.0,55,-99.99,,,0.00,weatherlink.com 1.10,2013-04-11 22:43:00,
2013-04-11 17:58:00,50.2,34.0,29.77,West,262,15.0,-999.0,55,-99.99,,,0.00,weatherlink.com 1.10,2013-04-11 22:58:00,
2013-04-11 18:13:00,50.0,35.0,29.77,WNW,288,8.0,-999.0,56,-99.99,,,0.00,weatherlink.com 1.10,2013-04-11 23:13:00,
2013-04-11 18:28:00,49.6,35.0,29.78,NW,326,0.0,-999.0,57,-99.99,,,0.00,weatherlink.com 1.10,2013-04-11 23:28:00,
2013-04-11 18:43:00,49.2,35.0,29.79,West,266,0.0,-999.0,58,-99.99,,,0.00,weatherlink.com 1.10,2013-04-11 23:43:00,
2013-04-11 18:58:00,48.5,34.0,29.79,WNW,302,0.0,-999.0,58,-99.99,,,0.00,weatherlink.com 1.10,2013-04-11 23:58:00,
2013-04-11 19:13:00,48.0,34.0,29.79,West,259,3.0,-999.0,59,-99.99,,,0.00,weatherlink.com 1.10,2013-04-12 00:13:00,
2013-04-11 19:28:00,47.5,34.0,29.80,West,262,0.0,-999.0,60,-99.99,,,0.00,weatherlink.com 1.10,2013-04-12 00:28:00,
2013-04-11 19:43:00,46.7,34.0,29.80,WSW,247,4.0,-999.0,62,-99.99,,,0.00,weatherlink.com 1.10,2013-04-12 00:43:00,
2013-04-11 19:58:00,46.0,35.0,29.81,SW,236,6.0,-999.0,65,-99.99,,,0.00,weatherlink.com 1.10,2013-04-12 00:58:00,
2013-04-11 20:14:00,45.4,35.0,29.81,West,268,5.0,-999.0,66,-99.99,,,0.00,weatherlink.com 1.10,2013-04-12 01:14:00,
2013-04-11 20:28:00,44.9,35.0,29.82,WSW,250,2.0,-999.0,68,-99.99,,,0.00,weatherlink.com 1.10,2013-04-12 01:28:00,
2013-04-11 20:43:00,44.9,34.0,29.82,WSW,245,12.0,-999.0,67,-99.99,,,0.00,weatherlink.com 1.10,2013-04-12 01:43:00,
2013-04-11 20:58:00,44.9,34.0,29.83,WSW,243,13.0,-999.0,66,-99.99,,,0.00,weatherlink.com 1.10,2013-04-12 01:58:00,
2013-04-11 21:13:00,44.8,34.0,29.83,SW,232,3.0,-999.0,65,-99.99,,,0.00,weatherlink.com 1.10,2013-04-12 02:13:00,
2013-04-11 21:28:00,44.8,33.0,29.83,West,276,6.0,-999.0,64,-99.99,,,0.00,weatherlink.com 1.10,2013-04-12 02:28:00,
2013-04-11 21:43:00,44.6,33.0,29.84,WSW,252,6.0,-999.0,65,-99.99,,,0.00,weatherlink.com 1.10,2013-04-12 02:43:00,
2013-04-11 21:58:00,44.3,33.0,29.85,WSW,248,4.0,-999.0,65,-99.99,,,0.00,weatherlink.com 1.10,2013-04-12 02:58:00,
2013-04-11 22:13:00,44.1,33.0,29.86,West,281,1.0,-999.0,65,-99.99,,,0.00,weatherlink.com 1.10,2013-04-12 03:13:00,
2013-04-11 22:28:00,43.7,33.0,29.86,West,260,5.0,-999.0,66,-99.99,,,0.00,weatherlink.com 1.10,2013-04-12 03:28:00,
2013-04-11 22:43:00,43.8,33.0,29.86,West,279,0.0,-999.0,65,-99.99,,,0.00,weatherlink.com 1.10,2013-04-12 03:43:00,
2013-04-11 22:58:00,43.7,33.0,29.87,WNW,288,1.0,-999.0,65,-99.99,,,0.00,weatherlink.com 1.10,2013-04-12 03:58:00,
2013-04-11 23:13:00,43.7,33.0,29.87,West,270,0.0,-999.0,66,-99.99,,,0.00,weatherlink.com 1.10,2013-04-12 04:13:00,
2013-04-11 23:28:00,43.9,32.0,29.86,WNW,284,0.0,-999.0,64,-99.99,,,0.00,weatherlink.com 1.10,2013-04-12 04:28:00,
2013-04-11 23:43:00,44.1,32.0,29.86,WNW,285,6.0,-999.0,63,-99.99,,,0.00,weatherlink.com 1.10,2013-04-12 04:43:00,
2013-04-11 23:58:00,44.0,32.0,29.86,West,264,6.0,-999.0,64,-99.99,,,0.00,weatherlink.com 1.10,2013-04-12 04:58:00,